Flag for Canada Weather past 2 weeks in Qikiqtarjuaq, Nunavut, Canada

Now
18 °F

Sunny.


Feels Like: 7 °F
Forecast: 10 / 23 °F
Wind: 8 mph from Southwest

Location: Broughton Island Airport

Current Time: May 22, 2015 at 9:33:13 AM

Latest Report: May 22, 2015 at 9:00 AM


Visibility: 15 mi

Pressure: 29.61 "Hg

Humidity: 73%

Dew point: 10 °F

Location of QikiqtarjuaqLocation

Historic Weather in Qikiqtarjuaq — Graph

°F

Qikiqtarjuaq temperature yesterday

Maximum temperature yesterday: 25 °F (at 1:00 PM)
Minimum temperature yesterday: 12 °F (at 4:00 AM)
Average temperature yesterday: 20 °F

Past Weeks' High & Low Weather Summary

 TemperatureHumidityPressure
High28 °F (May 20, 1:00 PM)100% (May 8, 4:00 AM)30.29 "Hg (May 8, 4:00 AM)
Low1 °F (May 12, 6:00 AM)64% (May 18, 1:00 PM)29.12 "Hg (May 18, 7:00 AM)
Average18 °F85%29.82 "Hg
* Reported May 7 8:00 AM — May 22 8:00 AM, Qikiqtarjuaq, Weather by CustomWeather, © 2015

Note: Actual official high and low records may vary slightly from our data, if they occured in-between our weather recording intervals... More about our weather records

Advertising

Qikiqtarjuaq weather history for previous 24 hours

 ConditionsComfort  
Time TempWeatherWind HumidityBarometerVisibility
8:00 AM
Fri, May 22
14 °FSunny.8 mph79%29.62 "Hg15 mi
7:00 AM16 °FSunny.7 mph67%29.63 "Hg9 mi
6:00 AM10 °FSunny.2 mph79%29.64 "Hg9 mi
5:00 AM10 °FSunny.No wind79%29.65 "Hg9 mi
4:00 AM14 °FSunny.7 mph73%29.66 "Hg9 mi
3:00 AM12 °FSunny.13 mph79%29.67 "Hg9 mi
2:00 AM12 °FClear.13 mph85%29.68 "Hg9 mi
1:00 AM12 °FClear.12 mph85%29.70 "Hg9 mi
12:00 AM16 °FClear.12 mph79%29.72 "Hg9 mi
11:00 PM
Thu, May 21
14 °FSunny.8 mph85%29.75 "Hg9 mi
10:00 PM16 °FSunny.7 mph93%29.77 "Hg9 mi
9:00 PM18 °FSunny.8 mph86%29.79 "Hg9 mi
8:00 PM21 °FSunny.8 mph86%29.81 "Hg9 mi
7:00 PM21 °FSunny.7 mph86%29.83 "Hg9 mi
6:00 PM25 °FPartly sunny.6 mph74%29.84 "Hg15 mi
5:00 PM25 °FPartly sunny.7 mph80%29.85 "Hg15 mi
4:00 PM25 °FScattered clouds.6 mph80%29.86 "Hg15 mi
3:00 PM25 °FScattered clouds.10 mph80%29.88 "Hg15 mi
2:00 PM25 °FPassing clouds.8 mph74%29.89 "Hg15 mi
1:00 PM25 °FSunny.10 mph74%29.90 "Hg15 mi
12:00 PM23 °FScattered clouds.10 mph80%29.91 "Hg15 mi
11:00 AM23 °FScattered clouds.8 mph80%29.93 "Hg15 mi
10:00 AM21 °FPartly sunny.8 mph80%29.94 "Hg15 mi
9:00 AM19 °FPartly sunny.9 mph86%29.95 "Hg15 mi
Weather by CustomWeather, © 2015

See weather overviewHow to use our weather pages